[[{"header":{"parameterUnit":"m.s-1","parameterCategory":1,"la1":30.2991,"la2":30.254,"lo1":-89.0895,"lo2":-89.0444,"dy":0.0017,"dx":0.0017,"nx":28,"ny":28,"refTime":"2024-05-10T21:00:00:Z","depth":0,"parameterNumber":2,"parameterNumberName":"U-component_of_WINDS"},"data":[0,0,0,0,0,0,0,0,0,0,0,0,0,0,0,0,0,0,0,0,0,0,0,0,0,0,0,0,0,0,0,0,0,0,0,0,0,0,0,0,0,0,0,0,0,0,0,0,0,0,0,0,0,0,0,0,0,0,-0.5329,-0.5329,0,-0.5298,-0.5297,-0.5297,-0.5236,-0.5235,-0.5234,-0.5233,-0.5202,-0.5203,-0.5203,0,0,0,0,0,0,0,0,0,0,0,0,0,-0.5339,-0.5339,-0.5329,-0.5329,-0.5328,-0.5298,-0.5297,-0.5297,-0.5236,-0.5235,-0.5233,-0.5232,-0.5202,-0.5203,-0.5203,0,0,0,0,0,0,0,0,0,0,0,0,0,-0.5324,-0.5339,-0.5329,-0.5294,-0.5291,-0.5298,-0.5297,-0.5297,-0.5237,-0.5235,-0.5233,-0.5231,-0.5202,-0.5203,-0.5203,-0.5242,0,0,-0.5204,-0.5205,0,0,0,0,0,0,0,0,-0.5325,-0.5324,-0.53,-0.5297,-0.5293,-0.5269,-0.5289,-0.5278,-0.5237,-0.5257,-0.5233,-0.5231,-0.5226,-0.5224,-0.5222,-0.524,-0.5239,-0.5204,-0.5205,-0.5205,-0.5205,0,0,0,0,0,0,0,-0.5326,-0.5325,-0.5317,-0.53,-0.5295,-0.5281,-0.5277,-0.5287,-0.5252,-0.5255,-0.5251,-0.5248,-0.5224,-0.5222,-0.5221,-0.5238,-0.5204,-0.5205,-0.5205,-0.5205,-0.5287,-0.5289,0,0,0,0,0,0,-0.5332,-0.5326,-0.5318,-0.5316,-0.5305,-0.5282,-0.5278,-0.5278,-0.5252,-0.5246,-0.525,-0.5245,-0.5222,-0.5221,-0.522,-0.5264,-0.5205,-0.5205,-0.5206,-0.5285,-0.5288,-0.529,0,0,0,0,0,0,-0.5332,-0.5332,-0.5319,-0.532,-0.5317,-0.5284,-0.5285,-0.5279,-0.5277,-0.5247,-0.5241,-0.5254,-0.5221,-0.5219,-0.5237,-0.5262,-0.5206,-0.5206,-0.5283,-0.5286,-0.5289,-0.5352,0,0,0,0,0,0,-0.5333,-0.5332,-0.5346,-0.532,-0.5317,-0.5336,-0.5287,-0.5279,-0.5278,-0.5272,-0.525,-0.5245,-0.5219,-0.5236,-0.5237,-0.5261,-0.5206,-0.5281,-0.5284,-0.5288,-0.5347,-0.5356,-0.5364,0,0,0,0,0,-0.5333,-0.5365,-0.5347,-0.5346,-0.5333,-0.5337,-0.5335,-0.5305,-0.528,-0.5294,-0.5275,-0.5245,-0.5259,-0.5239,-0.5239,-0.5264,-0.5279,-0.5283,-0.5288,-0.5343,-0.5354,-0.5364,0,0,0,0,0,0,-0.5394,-0.5361,-0.534,-0.5365,-0.5354,-0.5327,-0.5343,-0.5318,-0.5314,-0.5309,-0.5272,-0.5268,-0.529,-0.5279,-0.5257,-0.53,-0.5264,-0.5269,-0.5307,-0.5317,-0.5325,-0.5327,-0.5207,0,0,0,0,0,-0.5411,-0.5416,-0.5387,-0.5411,-0.5407,-0.5376,-0.5377,-0.5354,-0.5342,-0.5337,-0.532,-0.531,-0.5312,-0.5314,-0.5314,-0.5346,-0.534,-0.5363,-0.5371,-0.5378,-0.5383,-0.5399,-0.5409,-0.5304,-0.5304,-0.5304,0,0,-0.5444,-0.5427,-0.5432,-0.5423,-0.5412,-0.5419,-0.5373,-0.5382,-0.5387,-0.5339,-0.5354,-0.5341,-0.5328,-0.5352,-0.5362,-0.5344,-0.5411,-0.5384,-0.539,-0.539,-0.5405,-0.5415,-0.5423,-0.5307,-0.5306,-0.5306,0,0,-0.5509,-0.5496,-0.5515,-0.5505,-0.549,-0.5469,-0.5474,-0.5451,-0.544,-0.5455,-0.5419,-0.5426,-0.543,-0.5422,-0.5418,-0.5482,-0.5454,-0.5483,-0.5527,-0.5543,-0.5552,-0.5559,-0.5582,-0.559,-0.5487,-0.5488,-0.5488,0,-0.5553,-0.5561,-0.5528,-0.5539,-0.5537,-0.5494,-0.5513,-0.5506,-0.5491,-0.5491,-0.547,-0.5475,-0.5463,-0.5485,-0.5501,-0.55,-0.5504,-0.5485,-0.5553,-0.556,-0.5566,-0.5587,-0.5596,-0.5491,-0.5491,-0.549,-0.549,0,-0.5616,-0.5622,-0.564,-0.5626,-0.5626,-0.5641,-0.5611,-0.5615,-0.5593,-0.5576,-0.5592,-0.5576,-0.5572,-0.5576,-0.5555,-0.5596,-0.5585,-0.556,-0.5522,-0.558,-0.56,-0.5608,-0.5496,-0.5495,-0.5494,-0.5493,0,0,-0.5716,-0.5686,-0.5693,-0.5686,-0.5667,-0.5671,-0.5686,-0.5682,-0.5686,-0.5678,-0.5689,-0.5695,-0.5671,-0.5667,-0.5645,-0.566,-0.5711,-0.5632,-0.5631,-0.5647,-0.5756,-0.5776,-0.5786,-0.5694,-0.5695,-0.5696,-0.5758,0,-0.5776,-0.5798,-0.5769,-0.5797,-0.5803,-0.5764,-0.5776,-0.5766,-0.5751,-0.5754,-0.5737,-0.5741,-0.571,-0.5707,-0.572,-0.5702,-0.5733,-0.5698,-0.5704,-0.5705,-0.5708,-0.5796,-0.5816,-0.5874,-0.5765,-0.5766,-0.5767,0,-0.5848,-0.5844,-0.5872,-0.5852,-0.5853,-0.5865,-0.586,-0.5864,-0.5852,-0.584,-0.5836,-0.581,-0.5824,-0.5789,-0.5807,-0.5784,-0.5785,-0.5778,-0.5779,-0.5778,-0.5739,-0.5797,-0.5892,-0.5901,-0.5779,-0.5778,-0.5777,0,-0.5918,-0.592,-0.5937,-0.5933,-0.591,-0.5919,-0.591,-0.5896,-0.5896,-0.5893,-0.5892,-0.5891,-0.5889,-0.5889,-0.5863,-0.584,-0.5886,-0.5848,-0.5876,-0.5877,-0.5886,-0.5886,-0.5983,-0.5889,-0.5888,-0.5888,-0.5888,0,-0.5988,-0.6007,-0.5968,-0.5979,-0.6,-0.5968,-0.5989,-0.5976,-0.5965,-0.5973,-0.594,-0.5948,-0.5914,-0.5919,-0.59,-0.5919,-0.5918,-0.5909,-0.5904,-0.5912,-0.5913,-0.5912,-0.5907,-0.5891,-0.589,-0.589,-0.5889,0,-0.6069,-0.6044,-0.606,-0.6037,-0.6032,-0.6048,-0.6029,-0.6038,-0.6021,-0.6032,-0.6033,-0.6006,-0.6011,-0.5986,-0.5986,-0.5973,-0.6001,-0.5989,-0.6005,-0.6001,-0.603,-0.6028,-0.6129,-0.6141,-0.604,-0.6041,-0.6042,0,-0.6114,-0.6128,-0.6106,-0.6109,-0.6102,-0.6107,-0.6107,-0.6077,-0.6079,-0.6067,-0.6078,-0.608,-0.608,-0.609,-0.6071,-0.6071,-0.6058,-0.6094,-0.6058,-0.6066,-0.6059,-0.6058,-0.6059,-0.6101,-0.6102,-0.6104,-0.6104,0,-0.6197,-0.6184,-0.6185,-0.6182,-0.6183,-0.618,-0.6174,-0.6179,-0.6146,-0.615,-0.6154,-0.6154,-0.6155,-0.6157,-0.6154,-0.6146,-0.612,-0.6116,-0.6122,-0.613,-0.6139,-0.6135,-0.6025,-0.6113,-0.6113,-0.6112,-0.6111,-0.6111,-0.6261,-0.6271,-0.6258,-0.6261,-0.6254,-0.625,-0.6258,-0.6242,-0.6245,-0.6242,-0.6225,-0.6233,-0.6223,-0.6216,-0.621,-0.6216,-0.6199,-0.6209,-0.6211,-0.6214,-0.6219,-0.6139,-0.6216,-0.6215,-0.6215,-0.6215,-0.6215,0,-0.6341,-0.6331,-0.6334,-0.6328,-0.633,-0.6306,-0.6299,-0.6303,-0.631,-0.6302,-0.6303,-0.6309,-0.6312,-0.6294,-0.6294,-0.6303,-0.6291,-0.6304,-0.6303,-0.6301,-0.6234,-0.6228,-0.6314,-0.6314,-0.6314,-0.6314,-0.6314,-0.6314,-0.6383,-0.64,-0.6387,-0.64,-0.6391,-0.6398,-0.6396,-0.6392,-0.6386,-0.6394,-0.6396,-0.6384,-0.6373,-0.6373,-0.6375,-0.637,-0.6371,-0.6388,-0.6379,-0.6316,-0.6306,-0.6297,-0.6291,-0.6389,-0.6389,-0.6446,-0.6446,-0.6447]},{"header":{"parameterUnit":"m.s-1","parameterCategory":1,"la1":30.2991,"la2":30.254,"lo1":-89.0895,"lo2":-89.0444,"dy":0.0017,"dx":0.0017,"nx":28,"ny":28,"refTime":"2024-05-10T21:00:00:Z","depth":0,"parameterNumber":3,"parameterNumberName":"V-component_of_WINDS"},"data":[0,0,0,0,0,0,0,0,0,0,0,0,0,0,0,0,0,0,0,0,0,0,0,0,0,0,0,0,0,0,0,0,0,0,0,0,0,0,0,0,0,0,0,0,0,0,0,0,0,0,0,0,0,0,0,0,0,0,-1.2986,-1.2985,0,-1.292,-1.292,-1.2919,-1.2779,-1.2776,-1.2773,-1.2771,-1.2706,-1.2707,-1.2708,0,0,0,0,0,0,0,0,0,0,0,0,0,-1.2995,-1.2995,-1.2986,-1.2985,-1.2984,-1.2921,-1.292,-1.2919,-1.278,-1.2776,-1.2773,-1.277,-1.2706,-1.2707,-1.2708,0,0,0,0,0,0,0,0,0,0,0,0,0,-1.2967,-1.2995,-1.2986,-1.2907,-1.2899,-1.2921,-1.292,-1.2919,-1.278,-1.2776,-1.2772,-1.2768,-1.2706,-1.2707,-1.2708,-1.2802,0,0,-1.2712,-1.2713,0,0,0,0,0,0,0,0,-1.2968,-1.2966,-1.292,-1.2913,-1.2904,-1.2853,-1.2899,-1.288,-1.2781,-1.2826,-1.2771,-1.2766,-1.2759,-1.2756,-1.2753,-1.2799,-1.2796,-1.2713,-1.2713,-1.2714,-1.2714,0,0,0,0,0,0,0,-1.297,-1.2968,-1.296,-1.2919,-1.291,-1.2876,-1.2868,-1.2895,-1.2817,-1.2821,-1.2811,-1.2805,-1.2754,-1.2752,-1.275,-1.2795,-1.2713,-1.2714,-1.2715,-1.2715,-1.2921,-1.2925,0,0,0,0,0,0,-1.2983,-1.2971,-1.2962,-1.2958,-1.2926,-1.288,-1.287,-1.2874,-1.2816,-1.2803,-1.2809,-1.2799,-1.2751,-1.2749,-1.2747,-1.2858,-1.2714,-1.2715,-1.2716,-1.2916,-1.2922,-1.2927,0,0,0,0,0,0,-1.2984,-1.2984,-1.2965,-1.2962,-1.2957,-1.2884,-1.289,-1.2875,-1.2873,-1.2807,-1.2792,-1.2821,-1.2748,-1.2745,-1.2791,-1.2854,-1.2716,-1.2717,-1.2911,-1.2918,-1.2924,-1.3078,0,0,0,0,0,0,-1.2985,-1.2985,-1.3019,-1.2963,-1.2957,-1.3008,-1.2893,-1.2877,-1.2875,-1.2862,-1.2814,-1.2802,-1.2744,-1.2789,-1.2792,-1.2853,-1.2718,-1.2905,-1.2914,-1.2922,-1.3067,-1.3089,-1.3108,0,0,0,0,0,-1.2986,-1.3063,-1.3021,-1.3021,-1.2998,-1.3012,-1.3009,-1.294,-1.2881,-1.2915,-1.2874,-1.2804,-1.2845,-1.2795,-1.2797,-1.286,-1.2901,-1.2911,-1.2922,-1.3057,-1.3085,-1.3108,0,0,0,0,0,0,-1.3127,-1.3055,-1.3007,-1.3068,-1.3048,-1.2988,-1.3029,-1.297,-1.2966,-1.2953,-1.2868,-1.2859,-1.2917,-1.2891,-1.2837,-1.295,-1.2862,-1.2874,-1.2965,-1.299,-1.3011,-1.3018,-1.2719,0,0,0,0,0,-1.3166,-1.3182,-1.3118,-1.3179,-1.3171,-1.3103,-1.3106,-1.3055,-1.303,-1.3021,-1.2982,-1.2962,-1.297,-1.2978,-1.2982,-1.3061,-1.3052,-1.3105,-1.3126,-1.3143,-1.3156,-1.3201,-1.3226,-1.2961,-1.2961,-1.2961,0,0,-1.3245,-1.3208,-1.3223,-1.3207,-1.3184,-1.3206,-1.3096,-1.3122,-1.3138,-1.3025,-1.3067,-1.3038,-1.3009,-1.3074,-1.31,-1.3055,-1.3226,-1.3156,-1.3171,-1.3174,-1.3215,-1.324,-1.3263,-1.2968,-1.2967,-1.2966,0,0,-1.3403,-1.3374,-1.3424,-1.3405,-1.3373,-1.3328,-1.334,-1.329,-1.3267,-1.3307,-1.3225,-1.3243,-1.3258,-1.3243,-1.3238,-1.3394,-1.3332,-1.3397,-1.3507,-1.3553,-1.3574,-1.3592,-1.3653,-1.3676,-1.3408,-1.3409,-1.3409,0,-1.3507,-1.3535,-1.3458,-1.3491,-1.3489,-1.3387,-1.344,-1.3424,-1.3396,-1.3397,-1.3346,-1.3367,-1.334,-1.3403,-1.3441,-1.3438,-1.3453,-1.3404,-1.3576,-1.3594,-1.361,-1.3668,-1.369,-1.3417,-1.3416,-1.3416,-1.3415,0,-1.3667,-1.3688,-1.3732,-1.3709,-1.3711,-1.3753,-1.3686,-1.3697,-1.3646,-1.3607,-1.3652,-1.3617,-1.3615,-1.3624,-1.3574,-1.3682,-1.3655,-1.3591,-1.3502,-1.3645,-1.3698,-1.3719,-1.343,-1.3427,-1.3424,-1.3422,0,0,-1.3912,-1.3848,-1.3866,-1.3857,-1.3816,-1.3832,-1.3871,-1.3869,-1.3883,-1.3866,-1.3901,-1.3918,-1.386,-1.3854,-1.3802,-1.3841,-1.3975,-1.3773,-1.3771,-1.3817,-1.4097,-1.415,-1.4176,-1.3931,-1.3935,-1.3938,-1.4102,0,-1.4064,-1.4128,-1.4062,-1.4141,-1.4163,-1.4068,-1.4103,-1.4083,-1.4048,-1.4063,-1.4023,-1.4039,-1.3958,-1.3955,-1.399,-1.3951,-1.4031,-1.3938,-1.3967,-1.3969,-1.3983,-1.4203,-1.4257,-1.4413,-1.4121,-1.4125,-1.4127,0,-1.425,-1.4245,-1.4327,-1.4286,-1.4292,-1.4325,-1.4321,-1.4334,-1.4311,-1.4283,-1.4278,-1.4215,-1.4254,-1.4165,-1.422,-1.4159,-1.4166,-1.4149,-1.4154,-1.4158,-1.406,-1.4219,-1.4461,-1.4487,-1.4158,-1.4155,-1.4153,0,-1.4429,-1.4442,-1.4494,-1.4488,-1.4439,-1.4466,-1.4447,-1.4419,-1.4424,-1.4419,-1.4423,-1.4423,-1.4425,-1.4428,-1.4368,-1.4307,-1.4433,-1.4337,-1.4415,-1.4417,-1.4449,-1.4449,-1.4702,-1.4446,-1.4445,-1.4445,-1.4444,0,-1.4609,-1.4664,-1.4575,-1.4607,-1.4668,-1.4591,-1.4654,-1.4625,-1.4602,-1.4629,-1.4545,-1.4573,-1.449,-1.451,-1.4463,-1.452,-1.4519,-1.4501,-1.4489,-1.4511,-1.4515,-1.4519,-1.4509,-1.4451,-1.445,-1.4448,-1.4447,0,-1.482,-1.4761,-1.4813,-1.4764,-1.4752,-1.48,-1.4758,-1.4788,-1.4747,-1.4784,-1.4788,-1.4726,-1.4745,-1.4685,-1.4694,-1.4663,-1.4747,-1.4714,-1.4756,-1.4748,-1.4832,-1.4827,-1.5101,-1.5135,-1.4852,-1.4855,-1.4857,0,-1.4941,-1.4982,-1.4938,-1.495,-1.4936,-1.4957,-1.4962,-1.4889,-1.4898,-1.4878,-1.4911,-1.4924,-1.493,-1.4966,-1.4923,-1.4931,-1.4902,-1.4997,-1.4902,-1.4926,-1.491,-1.4911,-1.4918,-1.5018,-1.5022,-1.5024,-1.5027,0,-1.5164,-1.5135,-1.5145,-1.5148,-1.5157,-1.5155,-1.5147,-1.5162,-1.5084,-1.5099,-1.5119,-1.5124,-1.5135,-1.5151,-1.515,-1.5132,-1.507,-1.5056,-1.5076,-1.5103,-1.5128,-1.5122,-1.4816,-1.5051,-1.5049,-1.5047,-1.5046,-1.5045,-1.5338,-1.5372,-1.5348,-1.5364,-1.5351,-1.5347,-1.5374,-1.5338,-1.5353,-1.5357,-1.5313,-1.5343,-1.5323,-1.5315,-1.5304,-1.5328,-1.5285,-1.5311,-1.5319,-1.5329,-1.5346,-1.512,-1.5327,-1.5326,-1.5325,-1.5325,-1.5324,0,-1.5562,-1.5542,-1.5558,-1.5551,-1.5566,-1.5503,-1.5492,-1.5509,-1.5537,-1.5522,-1.5532,-1.5557,-1.5572,-1.5531,-1.5541,-1.5569,-1.5541,-1.5575,-1.5575,-1.5573,-1.5381,-1.5366,-1.5598,-1.5598,-1.5598,-1.5598,-1.5598,-1.5598,-1.5681,-1.5738,-1.5706,-1.5756,-1.5736,-1.5766,-1.5766,-1.5763,-1.5752,-1.5785,-1.5797,-1.577,-1.5747,-1.5755,-1.5768,-1.5755,-1.5766,-1.5811,-1.579,-1.5612,-1.5586,-1.556,-1.5546,-1.5813,-1.5813,-1.598,-1.5982,-1.5983]}]]